Snowfall_Accumulation
0.0 0.0 0.0 0.0 0.0 0.0 0.0 0.0 0.0 0.0 0.0 0.0 0.0 0.0 0.0 0.0 0.0 0.0 0.0 0.0 0.0 0.0 0.0 0.0 0.0 0.0 0.0 0.0 0.0 0.0 0.0 0.0 0.4 0.0 0.0 0.0 0.0 0.0 0.0 0.0 0.0 0.0 0.0
0.0 0.0 0.0 0.0 0.0 0.0 0.0 0.0 0.0 0.0 0.0 0.0 0.0 0.0 0.0 0.0 0.0 0.0 0.0 0.0 0.0 0.0 0.0 0.0 0.0 0.0 0.0 0.0 0.0 0.0 0.0 0.0 0.0 0.0 0.0 0.0 0.0 0.0 0.0 0.0 0.0 0.0 0.0
0.0 0.0 0.0 0.0 0.0 0.0 0.0 0.0 0.0 0.0 0.0 0.0 0.0 0.0 0.0 0.0 0.0 0.0 0.0 0.0 0.0 0.0 0.0 0.0 0.0 0.0 0.0 0.0 0.0 0.0 0.0 0.0 0.0 0.0 0.0 0.0 0.0 0.0 0.0 0.0 0.0 0.0 0.0
0.0 0.0 0.0 0.0 0.0 0.0 0.0 0.0 0.0 0.0 0.0 0.0 0.0 0.0 0.0 0.0 0.0 0.0 0.0 0.0 0.0 0.0 0.0 0.0 0.0 0.1 0.1 0.1 0.0 0.0 0.0 0.0 0.0 0.0 0.0 0.0 0.0 0.0 0.0 0.0 0.0 0.0 0.0
0.0 0.0 0.0 0.0 0.0 0.0 0.0 0.0 0.0 0.0 0.0 0.0 0.0 0.0 0.0 0.0 0.0 0.1 0.0 0.1 0.1 0.1 0.1 0.1 0.1 nan nan nan 0.4 0.1 0.0 0.1 0.1 0.0 0.1 0.2 0.1 0.2 0.0 0.0 0.1 0.1 0.1
0.0 0.0 0.0 0.0 0.0 0.0 0.0 0.0 0.0 0.0 0.0 0.0 0.0 0.0 0.0 0.0 nan nan 0.3 0.1 0.1 0.2 0.3 0.2 0.1 0.2 0.1 nan nan nan nan 0.7 1.0 0.5 0.3 0.2 0.0 0.1 0.1 0.2 0.3 0.8 1.0
0.0 0.0 0.0 0.0 0.0 0.0 0.0 0.0 0.0 0.1 0.1 0.1 0.1 0.0 0.0 0.1 nan nan nan 0.4 0.4 0.6 0.5 0.3 0.2 0.2 nan 0.2 nan nan nan nan 0.6 1.9 2.1 0.2 0.2 0.0 0.1 0.4 0.1 0.3 0.4
0.0 0.0 0.0 0.0 0.0 0.0 0.1 0.2 0.2 0.2 0.2 0.2 0.3 0.4 0.8 0.6 nan nan nan 0.7 0.8 0.7 0.6 0.4 0.3 0.3 0.4 1.5 1.3 2.1 1.3 1.1 1.2 2.0 1.4 0.9 0.3 0.2 0.4 0.5 1.1 0.5 0.8
0.0 0.0 0.0 0.0 0.1 0.2 0.4 0.5 0.5 0.5 0.6 1.0 0.8 1.8 1.7 1.9 nan nan 0.8 0.7 0.5 0.3 0.2 0.2 0.3 0.5 nan nan 2.4 2.6 2.8 1.9 nan nan nan nan nan nan nan 1.9 1.9 2.1 3.4
0.0 0.1 0.1 0.1 0.3 0.5 0.7 0.9 0.8 0.7 1.1 1.6 2.1 1.6 nan 2.0 nan nan nan 0.6 0.4 0.7 0.1 0.1 nan 0.5 nan nan 0.9 2.0 3.1 3.4 2.8 2.1 2.4 1.9 nan nan nan 1.0 3.1 4.4 3.3
0.1 0.4 0.8 1.1 1.2 1.0 1.4 1.4 1.5 2.1 2.1 2.3 2.4 1.9 1.4 1.3 1.7 nan nan 0.5 0.7 0.7 0.6 0.7 0.5 nan nan nan nan 0.5 2.0 2.0 2.7 3.1 3.1 3.8 3.3 2.1 3.3 2.7 2.1 5.5 6.3
0.9 1.7 1.9 1.6 1.3 1.2 1.4 2.0 2.0 1.7 2.3 2.6 2.2 2.3 2.3 1.9 nan nan nan nan nan 0.9 0.7 1.1 0.8 nan nan nan 1.1 nan nan 1.5 3.0 3.8 4.7 5.3 5.1 5.1 3.6 3.5 3.0 2.8 2.4
1.6 1.8 1.6 1.2 1.4 1.4 2.1 2.8 3.4 2.3 2.3 2.7 3.0 2.9 2.9 2.1 2.3 nan nan nan nan 0.9 0.7 0.8 nan nan nan 0.8 nan nan 0.8 3.0 3.9 5.8 4.2 4.0 4.7 4.6 3.7 4.4 3.1 2.5 1.9
3.6 5.8 3.2 4.6 3.3 2.6 3.0 2.5 3.6 4.8 5.7 5.4 5.8 6.8 5.2 3.4 2.6 2.1 2.0 1.7 nan 2.0 0.9 1.5 0.7 1.3 0.6 1.2 1.8 1.5 1.2 1.7 2.7 3.3 4.3 3.6 2.6 3.4 4.4 4.6 6.4 5.2 6.3
1.2 3.9 4.1 6.1 6.5 4.0 2.9 4.4 3.9 3.5 4.1 5.3 4.3 4.2 8.5 9.8 6.2 3.3 3.9 3.6 3.2 1.7 2.2 3.8 3.8 2.8 2.2 1.7 1.2 0.9 0.8 1.3 2.8 3.0 3.1 2.8 3.0 3.9 4.4 3.9 4.7 5.7 7.4
1.0 3.3 3.7 4.7 8.1 8.0 5.2 7.2 nan nan nan nan nan 7.4 10.3 nan nan nan nan nan nan nan 2.8 3.7 6.6 7.1 5.0 2.3 3.1 3.1 2.4 2.1 2.0 2.3 3.4 2.9 3.7 4.3 6.1 5.9 5.5 6.8 9.2
0.5 0.5 3.0 3.7 6.5 8.0 9.3 9.1 12.0 11.2 nan nan nan nan nan nan nan nan nan nan nan nan 6.0 5.5 10.6 11.5 7.6 4.0 3.5 3.1 4.2 3.4 2.0 3.5 3.9 4.4 4.7 3.5 6.0 6.2 6.6 6.7 7.9
1.3 0.2 3.3 4.2 6.8 8.9 9.7 10.0 9.6 10.1 12.1 13.3 nan nan nan nan nan nan nan nan 6.9 nan 4.3 7.2 10.2 9.4 6.1 5.2 4.7 4.7 4.4 5.2 4.9 3.9 6.2 8.2 9.5 7.8 7.2 6.4 6.0 10.4 8.6
3.4 5.2 5.9 7.3 7.4 8.0 8.4 9.4 9.0 9.1 10.3 11.9 11.5 8.1 5.6 nan nan nan nan 9.7 9.2 7.1 5.7 6.7 9.5 8.8 8.1 6.1 11.1 11.7 13.4 12.1 11.6 13.8 8.3 8.4 15.7 6.3 7.5 5.7 7.1 6.0 6.1
4.0 2.2 2.8 3.8 5.0 6.9 7.4 8.5 9.3 9.6 9.7 11.0 10.5 11.6 9.6 5.7 14.8 21.9 17.5 21.3 17.9 12.9 13.0 11.0 10.1 10.3 12.3 11.2 16.5 20.4 18.0 17.1 13.2 9.7 16.1 20.2 17.8 9.4 9.6 8.9 10.1 11.8 7.5
2.7 2.3 1.1 2.2 2.6 3.4 5.4 7.4 7.8 8.3 9.7 9.4 12.6 14.5 5.5 11.6 16.6 15.2 15.5 18.3 15.7 15.0 17.7 11.9 13.0 12.9 12.6 14.2 10.7 15.1 10.1 23.7 13.0 12.5 11.7 10.9 31.6 14.4 8.4 8.8 9.3 7.3 6.6
1.6 1.6 1.9 3.0 3.1 4.7 4.6 4.6 5.6 6.0 6.7 7.7 9.9 10.2 5.8 14.2 11.7 13.2 13.2 17.4 23.0 13.7 12.7 13.1 11.8 11.3 12.1 12.0 12.6 22.1 18.8 22.1 19.3 15.2 13.7 13.2 10.7 9.8 10.0 10.0 11.1 11.1 9.2
1.6 2.7 2.0 1.8 2.6 6.4 5.9 4.1 7.0 7.3 6.8 8.8 6.7 9.6 10.6 14.9 15.0 11.4 13.8 19.8 13.3 16.1 15.4 13.8 18.3 13.6 11.9 14.5 13.4 11.6 16.7 15.4 15.5 16.5 19.6 18.3 12.7 12.3 16.7 13.5 11.3 12.7 12.3
1.3 2.9 1.8 3.7 5.8 3.8 8.1 12.0 8.9 7.4 6.3 9.0 15.9 14.5 13.3 15.2 23.2 19.3 21.3 22.2 16.1 21.0 20.6 21.1 13.0 11.4 10.6 20.8 15.6 14.1 11.0 16.1 12.9 14.1 14.2 17.5 14.0 10.5 14.3 11.4 10.8 12.1 14.0
3.3 5.6 6.5 5.0 5.5 10.5 13.4 9.7 11.8 13.7 13.6 15.3 19.2 16.2 8.8 14.4 11.9 21.7 19.2 17.0 16.6 21.4 15.2 17.4 16.5 13.7 15.4 13.9 13.4 9.8 10.2 6.0 11.6 6.2 13.8 11.7 14.4 13.8 14.5 13.1 15.0 11.8 12.6
2.6 3.2 5.1 5.8 7.0 10.2 11.3 16.7 18.0 15.6 16.7 17.6 17.8 20.0 16.0 12.8 11.3 18.1 15.6 15.8 14.9 14.7 13.7 14.6 14.2 12.2 10.6 11.4 9.9 7.2 6.6 6.2 16.0 6.2 17.0 11.1 15.1 14.5 13.8 12.8 10.8 13.3 10.2
Water_Equivalent
0.00 0.00 0.00 0.00 0.00 0.00 0.00 0.00 0.00 0.00 0.00 0.00 0.00 0.00 0.00 0.00 0.00 0.00 0.00 0.00 0.00 0.00 0.00 0.00 0.00 0.00 0.00 0.00 0.00 0.00 0.00 0.01 0.06 0.00 0.00 0.00 0.00 0.00 0.00 0.00 0.00 0.00 0.00
0.00 0.00 0.00 0.00 0.00 0.00 0.00 0.00 0.00 0.00 0.00 0.00 0.00 0.00 0.00 0.00 0.00 0.00 0.00 0.00 0.00 0.00 0.00 0.00 0.00 0.00 0.00 0.00 0.00 0.00 0.00 0.00 0.01 0.01 0.00 0.00 0.00 0.00 0.00 0.00 0.00 0.00 0.00
0.00 0.00 0.00 0.00 0.00 0.00 0.00 0.00 0.00 0.00 0.00 0.00 0.00 0.00 0.00 0.00 0.00 0.00 0.00 0.00 0.00 0.00 0.00 0.00 0.00 0.01 0.00 0.00 0.00 0.00 0.00 0.00 0.01 0.00 0.00 0.00 0.00 0.00 0.00 0.00 0.00 0.00 0.00
0.00 0.00 0.00 0.00 0.00 0.00 0.00 0.00 0.00 0.00 0.00 0.00 0.00 0.00 0.00 0.00 0.00 0.00 0.00 0.01 0.01 0.01 0.01 0.01 0.01 0.01 0.02 0.02 0.00 0.01 0.00 0.00 0.01 0.00 0.00 0.01 0.00 0.00 0.00 0.00 0.01 0.00 0.00
0.00 0.00 0.00 0.00 0.00 0.00 0.00 0.00 0.00 0.00 0.00 0.00 0.00 0.00 0.00 0.00 0.00 0.03 0.01 0.02 0.02 0.04 0.03 0.02 0.03 nan nan nan 0.09 0.02 0.01 0.02 0.01 0.00 0.03 0.05 0.04 0.06 0.01 0.00 0.02 0.02 0.02
0.00 0.00 0.00 0.00 0.00 0.00 0.00 0.00 0.00 0.00 0.00 0.00 0.00 0.00 0.01 0.00 nan nan 0.12 0.04 0.03 0.05 0.06 0.05 0.02 0.04 0.03 nan nan nan nan 0.12 0.16 0.09 0.07 0.05 0.00 0.04 0.04 0.06 0.08 0.20 0.20
0.00 0.00 0.00 0.00 0.00 0.00 0.00 0.00 0.01 0.01 0.01 0.01 0.01 0.01 0.01 0.01 nan nan nan 0.09 0.11 0.12 0.09 0.05 0.03 0.04 nan 0.05 nan nan nan nan 0.21 0.39 0.25 0.05 0.03 0.00 0.02 0.05 0.01 0.07 0.08
0.00 0.00 0.00 0.00 0.00 0.01 0.02 0.04 0.04 0.03 0.04 0.05 0.06 0.07 0.16 0.11 nan nan nan 0.11 0.11 0.12 0.14 0.09 0.06 0.07 0.09 0.33 0.26 0.48 0.30 0.29 0.28 0.43 0.30 0.17 0.07 0.04 0.06 0.07 0.13 0.06 0.23
0.00 0.00 0.00 0.01 0.03 0.05 0.08 0.10 0.10 0.11 0.11 0.18 0.16 0.32 0.28 0.32 nan nan 0.12 0.10 0.07 0.05 0.03 0.05 0.07 0.11 nan nan 0.39 0.47 0.57 0.41 nan nan nan nan nan nan nan 0.34 0.51 0.45 0.86
0.01 0.01 0.02 0.03 0.06 0.11 0.14 0.19 0.16 0.14 0.21 0.32 0.38 0.29 nan 0.30 nan nan nan 0.10 0.06 0.15 0.02 0.02 nan 0.12 nan nan 0.14 0.27 0.48 0.47 0.55 0.52 0.66 0.57 nan nan nan 0.17 0.58 0.57 0.69
0.03 0.08 0.17 0.24 0.25 0.20 0.29 0.27 0.30 0.42 0.40 0.40 0.38 0.29 0.21 0.20 0.26 nan nan 0.08 0.16 0.18 0.16 0.16 0.14 nan nan nan nan 0.08 0.24 0.30 0.51 0.55 0.63 0.98 0.89 0.49 0.87 0.64 0.41 0.92 0.95
0.22 0.37 0.42 0.33 0.27 0.24 0.27 0.40 0.39 0.31 0.36 0.40 0.32 0.36 0.39 0.27 nan nan nan nan nan 0.24 0.17 0.29 0.21 nan nan nan 0.31 nan nan 0.43 0.67 0.76 0.87 0.93 0.97 1.02 0.76 0.92 0.73 0.76 0.61
0.39 0.41 0.35 0.25 0.28 0.28 0.41 0.52 0.60 0.38 0.40 0.40 0.61 0.56 0.54 0.40 0.46 nan nan nan nan 0.24 0.20 0.20 nan nan nan 0.26 nan nan 0.28 0.65 0.79 1.07 0.70 0.63 0.73 0.79 0.70 0.89 0.77 0.71 0.62
0.73 1.20 0.63 0.92 0.59 0.47 0.66 0.58 0.83 1.07 1.08 1.01 1.10 1.19 0.99 0.67 0.47 0.40 0.41 0.41 nan 0.42 0.26 0.33 0.22 0.32 0.20 0.34 0.43 0.33 0.30 0.40 0.52 0.55 0.65 0.55 0.43 0.57 0.71 0.77 1.09 1.09 1.44
0.24 0.83 0.86 1.42 1.39 0.75 0.58 0.92 0.86 0.76 0.94 1.08 0.85 0.87 1.58 1.78 1.18 0.71 0.80 0.71 0.65 0.34 0.51 0.76 0.67 0.48 0.38 0.32 0.26 0.23 0.20 0.28 0.51 0.51 0.51 0.48 0.53 0.62 0.69 0.67 0.80 0.91 1.23
0.16 0.67 0.80 1.06 1.86 1.83 1.12 1.42 nan nan nan nan nan 1.69 2.32 nan nan nan nan nan nan nan 0.56 0.68 1.12 1.22 0.79 0.39 0.52 0.53 0.43 0.42 0.33 0.39 0.61 0.48 0.58 0.69 0.86 0.93 0.92 1.08 1.28
0.10 0.10 0.66 0.84 1.38 1.59 1.86 1.66 1.74 2.11 nan nan nan nan nan nan nan nan nan nan nan nan 1.03 0.89 1.57 1.76 1.13 0.57 0.50 0.44 0.60 0.54 0.26 0.56 0.63 0.72 0.73 0.56 0.96 0.87 0.93 0.94 1.13
0.31 0.07 0.74 0.87 1.35 1.72 1.88 1.91 1.86 1.79 1.89 1.96 nan nan nan nan nan nan nan nan 1.07 nan 0.71 1.04 1.37 1.30 0.81 0.65 0.59 0.58 0.59 0.77 0.75 0.61 0.97 1.31 1.50 1.14 1.06 0.84 0.78 1.25 1.04
0.79 1.12 1.21 1.55 1.47 1.46 1.57 1.74 1.64 1.65 1.84 1.84 1.72 1.46 1.40 nan nan nan nan 1.46 1.25 1.04 0.87 0.95 1.30 1.15 1.02 0.79 1.56 1.66 1.94 1.72 1.68 2.10 1.27 1.30 2.72 0.92 1.12 0.87 0.99 1.16 1.13
0.82 0.65 0.58 0.72 0.92 1.20 1.17 1.34 1.47 1.55 1.52 1.67 1.59 1.69 1.36 0.96 2.10 3.27 2.44 3.19 2.54 1.84 1.89 1.53 1.35 1.41 1.65 1.50 2.30 3.04 2.69 2.58 1.87 1.41 2.38 3.35 3.05 1.48 1.31 1.19 1.45 1.57 1.00
0.49 0.44 0.35 0.42 0.48 0.57 0.86 1.13 1.18 1.24 1.43 1.31 1.90 2.48 1.81 1.60 2.12 2.03 1.87 2.33 1.92 1.80 2.30 1.54 1.74 1.74 1.72 1.93 1.34 1.98 1.30 3.60 1.73 1.65 1.55 1.52 5.65 1.92 1.14 1.22 1.29 0.97 0.79
0.30 0.32 0.39 0.59 0.57 0.85 0.73 0.72 0.87 0.90 1.00 1.13 1.39 1.41 1.90 1.88 1.44 1.60 1.65 2.30 3.40 1.73 1.49 1.60 1.38 1.34 1.43 1.42 1.50 3.20 2.39 3.02 2.69 2.04 1.79 1.64 1.38 1.39 1.27 1.29 1.44 1.48 1.18
0.35 0.63 0.43 0.35 0.49 1.99 1.06 0.66 1.13 1.20 1.06 1.41 1.00 1.17 1.28 1.86 1.87 1.33 1.73 2.81 1.66 1.98 1.82 1.63 2.41 1.54 1.46 1.86 1.86 1.50 1.97 1.77 1.86 2.10 2.34 2.31 1.51 1.55 2.20 1.71 1.42 1.55 1.49
0.33 0.70 0.41 0.81 1.17 0.66 1.53 2.22 1.52 2.29 1.01 1.47 2.73 2.22 1.85 1.97 3.56 2.83 2.99 3.68 2.35 3.14 3.12 3.00 1.46 1.22 1.17 2.99 2.03 1.72 1.25 1.97 1.61 1.65 1.79 2.05 1.63 1.63 1.85 1.45 1.41 1.47 1.67
0.82 1.34 1.52 1.04 1.09 2.13 2.75 1.86 2.14 2.55 2.40 2.78 3.32 2.61 1.12 2.10 1.63 3.76 3.02 2.30 2.05 3.07 1.84 2.25 2.00 1.57 1.76 1.47 1.37 0.95 1.34 1.99 1.89 2.05 1.58 1.30 1.65 1.57 1.61 1.53 1.83 1.47 1.48
0.62 0.76 1.12 1.18 1.35 2.04 2.15 3.12 3.17 2.76 2.75 3.19 3.24 3.40 2.55 1.83 1.68 3.14 2.27 2.10 1.83 1.75 1.68 1.84 1.72 1.37 1.19 1.29 1.01 2.09 2.16 2.03 2.08 2.05 2.06 1.29 1.70 1.72 1.65 1.51 1.30 1.58 1.17
SL_Ratio
nan nan nan nan nan nan nan nan nan nan nan nan nan nan nan nan nan nan nan nan nan nan nan nan nan nan nan nan nan nan nan 5.0 5.6 5.0 nan nan nan nan nan nan nan nan nan
nan nan nan nan nan nan nan nan nan nan nan nan nan nan nan nan nan nan nan nan nan nan nan nan nan nan nan nan nan nan 10.0 nan 5.3 5.9 5.0 nan nan nan nan nan nan nan nan
nan nan nan nan nan nan nan nan nan nan nan nan nan nan nan nan nan nan nan nan nan nan nan nan 5.5 5.0 6.0 nan 5.0 5.0 6.7 6.7 5.6 6.3 6.3 nan nan nan nan nan nan nan nan
nan nan nan nan nan nan nan nan nan nan nan nan nan nan nan nan nan 3.3 3.8 3.8 4.4 4.6 3.9 4.1 4.8 5.2 4.6 4.7 5.4 5.6 5.6 5.0 6.1 6.4 10.0 4.7 5.0 0.0 nan nan 2.7 2.7 nan
nan nan nan nan nan nan nan nan nan nan nan nan nan nan nan 2.5 4.0 3.1 3.7 3.9 4.4 3.7 4.0 4.1 4.3 nan nan nan 4.7 4.6 5.7 6.3 6.5 10.0 3.6 3.1 2.8 3.4 3.2 2.9 3.8 3.2 3.2
nan nan nan nan nan nan nan nan nan nan nan nan nan 4.3 4.2 nan nan nan 2.9 3.5 4.0 4.8 5.6 4.5 4.2 4.2 4.2 nan nan nan nan 5.5 6.1 5.4 4.4 4.1 6.7 2.9 2.8 3.7 4.0 4.1 5.3
nan nan nan nan nan nan nan nan 4.5 4.4 4.5 4.5 4.1 4.0 4.5 4.3 nan nan nan 4.1 4.0 4.9 5.3 5.3 5.5 5.0 nan 4.3 nan nan nan nan 3.0 4.8 8.5 5.3 6.2 6.7 7.0 7.4 6.3 4.4 4.9
nan nan nan nan 10.0 4.5 4.5 4.7 4.9 4.8 4.8 4.9 5.0 5.0 5.4 5.4 nan nan nan 6.1 6.5 5.4 4.4 4.4 4.1 4.4 4.3 4.8 5.0 4.4 4.2 3.9 4.1 4.7 4.8 5.1 5.0 5.5 7.0 7.9 8.7 7.6 3.4
nan nan nan 4.1 4.6 4.7 4.9 5.0 5.0 5.0 5.0 5.2 5.2 5.5 5.9 6.0 nan nan 6.8 7.0 7.2 7.2 6.2 4.6 4.0 4.8 nan nan 6.1 5.5 4.9 4.5 nan nan nan nan nan nan nan 5.6 3.6 4.8 3.9
4.1 3.8 3.7 3.9 4.5 4.8 4.9 5.0 5.0 5.0 5.1 5.1 5.4 5.6 nan 6.7 nan nan nan 5.8 7.6 4.4 6.3 4.8 nan 3.7 nan nan 6.3 7.3 6.5 7.2 5.1 4.0 3.7 3.2 nan nan nan 5.5 5.3 7.8 4.8
4.1 4.3 4.4 4.5 4.6 4.8 5.0 5.1 5.1 5.1 5.1 5.7 6.3 6.4 6.6 6.7 6.8 nan nan 5.9 4.3 4.2 3.9 4.3 3.8 nan nan nan nan 6.3 8.5 6.6 5.2 5.5 4.9 3.9 3.7 4.2 3.8 4.3 5.2 6.0 6.6
4.3 4.5 4.7 4.7 4.9 5.0 5.1 5.1 5.1 5.5 6.3 6.5 6.7 6.4 5.9 6.8 nan nan nan nan nan 4.0 4.4 4.0 3.6 nan nan nan 3.7 nan nan 3.4 4.5 5.0 5.4 5.7 5.3 5.0 4.7 3.8 4.0 3.7 4.0
4.2 4.3 4.6 5.0 5.1 5.2 5.2 5.4 5.6 6.1 5.9 6.8 4.9 5.2 5.3 5.2 4.9 nan nan nan nan 3.7 3.7 3.7 nan nan nan 3.0 nan nan 3.0 4.6 5.0 5.4 5.9 6.3 6.4 5.8 5.3 5.0 4.0 3.6 3.1
4.9 4.9 5.1 5.0 5.5 5.5 4.6 4.3 4.4 4.5 5.3 5.3 5.3 5.7 5.3 5.1 5.4 5.2 4.8 4.2 nan 4.6 3.4 4.3 3.0 4.1 3.0 3.5 4.1 4.6 4.1 4.4 5.2 5.9 6.5 6.6 6.0 6.0 6.1 5.9 5.9 4.8 4.4
5.2 4.7 4.8 4.3 4.7 5.3 5.0 4.7 4.6 4.7 4.3 5.0 5.0 4.8 5.4 5.5 5.3 4.6 4.9 5.0 4.9 5.0 4.3 5.0 5.7 5.7 5.9 5.4 4.7 3.9 4.0 4.5 5.4 5.9 6.0 5.9 5.6 6.3 6.4 5.8 5.9 6.3 6.0
5.9 4.9 4.6 4.5 4.4 4.4 4.7 5.1 nan nan nan nan nan 4.4 4.4 nan nan nan nan nan nan nan 4.9 5.5 5.9 5.8 6.3 5.9 5.9 5.8 5.6 5.1 5.9 6.0 5.6 6.1 6.5 6.3 7.1 6.3 5.9 6.3 7.2
5.2 5.3 4.5 4.4 4.7 5.0 5.0 5.5 6.9 5.3 nan nan nan nan nan nan nan nan nan nan nan nan 5.8 6.2 6.7 6.5 6.8 7.1 6.9 6.9 6.9 6.2 7.4 6.3 6.1 6.1 6.4 6.2 6.2 7.1 7.0 7.1 7.0
4.4 3.0 4.5 4.9 5.0 5.2 5.2 5.3 5.2 5.7 6.4 6.8 nan nan nan nan nan nan nan nan 6.4 nan 6.0 6.9 7.5 7.2 7.6 8.0 8.0 8.1 7.5 6.8 6.6 6.4 6.4 6.3 6.3 6.9 6.8 7.6 7.6 8.3 8.2
4.3 4.6 4.9 4.7 5.0 5.5 5.4 5.4 5.5 5.5 5.6 6.5 6.7 5.6 4.0 nan nan nan nan 6.6 7.3 6.9 6.6 7.1 7.3 7.7 7.9 7.8 7.1 7.0 6.9 7.0 6.9 6.6 6.6 6.4 5.8 6.9 6.7 6.6 7.1 5.2 5.4
4.9 3.4 4.9 5.3 5.4 5.8 6.3 6.3 6.4 6.2 6.4 6.6 6.6 6.9 7.0 5.9 7.0 6.7 7.2 6.7 7.0 7.0 6.9 7.2 7.5 7.3 7.4 7.5 7.2 6.7 6.7 6.6 7.0 6.9 6.8 6.0 5.8 6.3 7.3 7.5 7.0 7.5 7.5
5.6 5.4 3.0 5.3 5.5 5.9 6.3 6.5 6.6 6.7 6.8 7.1 6.6 5.9 3.0 7.2 7.8 7.5 8.3 7.8 8.2 8.3 7.7 7.7 7.5 7.4 7.3 7.4 8.0 7.6 7.7 6.6 7.5 7.5 7.5 7.2 5.6 7.5 7.3 7.2 7.2 7.5 8.4
5.1 5.0 5.0 5.1 5.4 5.5 6.3 6.4 6.4 6.7 6.8 6.8 7.1 7.3 3.0 7.6 8.1 8.2 8.0 7.5 6.7 7.9 8.5 8.2 8.5 8.4 8.4 8.4 8.4 6.9 7.9 7.3 7.2 7.5 7.7 8.1 7.7 7.0 7.9 7.7 7.7 7.5 7.8
4.7 4.3 4.6 5.1 5.3 3.2 5.6 6.2 6.2 6.1 6.4 6.3 6.7 8.2 8.3 8.0 8.0 8.6 8.0 7.0 8.0 8.1 8.5 8.5 7.6 8.8 8.1 7.8 7.2 7.7 8.5 8.7 8.3 7.9 8.4 7.9 8.4 7.9 7.6 7.9 8.0 8.2 8.2
4.1 4.1 4.5 4.6 5.0 5.7 5.3 5.4 5.9 3.2 6.2 6.1 5.8 6.5 7.2 7.7 6.5 6.8 7.1 6.0 6.9 6.7 6.6 7.0 8.9 9.4 9.1 7.0 7.7 8.2 8.8 8.2 8.0 8.5 8.0 8.5 8.6 6.4 7.7 7.9 7.7 8.2 8.4
4.0 4.1 4.3 4.8 5.1 4.9 4.9 5.2 5.5 5.4 5.6 5.5 5.8 6.2 7.8 6.9 7.3 5.8 6.3 7.4 8.1 7.0 8.3 7.7 8.2 8.7 8.8 9.4 9.8 10.3 7.6 3.0 6.1 3.0 8.7 9.0 8.7 8.8 9.0 8.6 8.2 8.1 8.5
4.2 4.2 4.6 4.9 5.2 5.0 5.3 5.3 5.7 5.7 6.1 5.5 5.5 5.9 6.3 7.0 6.7 5.8 6.9 7.5 8.1 8.4 8.1 7.9 8.3 8.9 9.0 8.9 9.8 3.5 3.0 3.0 7.7 3.0 8.2 8.6 8.9 8.5 8.3 8.5 8.3 8.4 8.7